Kosmos-952

operational
NORAD ID: 10358 Int'l Des: 1977-088 Owner: VMF Country: SU
LEOCIRCULAR

About Kosmos-952

Description loading...

Live Position

Loading 3D Globe...

Upcoming Passes

Altitude History

Altitude vs Time

uPlot chart will show altitude changes over time

Two-Line Element Set

1 10358U 77088A 25344.71542574 -.00000032 00000-0 51030-4 0 9999
2 10358 64.9367 264.2574 0030587 80.7832 279.6685 13.83733215437109
Epoch: Dec 10, 2025 • Age: 13 hours

Current Status

Altitude 994.9 km
Velocity 7.34 km/s
Sub-Earth Point -59.70°S, 42.52°W
Launch Date Sep 16, 1977
Age 48.2 years
Type other

Technical Details

Classification Payload
Mass 1150.00 kg
Dry Mass 1150.00 kg
Total Mass 3800.00 kg
Length 5.80 m
Diameter 1.30 m
Span 5.80 m
Shape Cyl
Manufacturer KOMET/ARSL
Bus Type US-A reactor
Phase Status In Orbit
Owner/State VMF/SU

Large Constellations

Loading constellations...